Theta_e
301 297 292 295 297 298 298 297 298 299 303 300 298 295 297 300 296 296 298 299 303 309 316 317 320 323 324 325 324 324 324 325 326 325 325 324 323 324 323 324 325 326 326 326
295 292 298 299 299 297 297 296 296 302 301 296 296 293 296 297 295 297 299 298 301 307 309 314 317 318 322 324 326 325 324 324 325 326 326 325 325 324 325 326 325 325 326 326
293 295 300 299 297 296 295 294 295 297 294 297 290 288 292 295 296 297 298 299 302 306 310 312 313 316 318 320 323 326 326 325 325 326 325 324 324 322 323 324 325 326 326 327
295 298 297 297 296 298 293 298 297 296 290 287 291 284 290 294 295 296 298 299 302 301 310 312 314 315 318 321 323 326 327 328 327 327 327 326 325 323 325 325 326 326 327 326
292 295 295 294 296 300 295 302 298 295 291 291 288 286 290 293 293 295 297 299 301 299 304 309 314 317 319 319 320 323 326 327 329 328 328 326 325 325 323 323 324 325 324 326
293 295 298 297 294 299 300 297 290 292 288 283 289 286 284 293 294 296 298 299 299 299 298 305 314 317 318 318 320 322 323 325 326 329 328 327 326 323 323 321 323 322 323 324
286 289 293 296 290 294 296 290 283 281 281 281 287 284 290 293 296 298 298 298 299 300 299 299 306 312 315 315 319 321 322 323 324 326 328 327 326 324 323 323 320 320 324 327
284 280 289 294 292 290 293 292 284 278 278 280 282 282 290 297 298 295 297 298 298 299 300 299 302 311 312 315 317 319 319 321 319 322 324 327 326 326 325 322 322 325 326 326
286 286 291 293 294 294 288 287 292 283 278 278 283 283 289 292 293 292 292 291 293 296 296 297 296 302 305 306 310 315 313 313 317 318 318 319 320 319 319 322 323 324 325 325
292 285 290 292 295 294 292 294 285 285 277 276 280 279 288 289 291 290 290 290 291 293 294 294 295 296 297 299 300 301 303 306 306 312 315 314 314 315 315 318 317 315 320 321
295 289 285 290 288 287 287 287 288 287 284 279 275 279 287 291 294 292 290 290 291 293 294 295 297 299 299 300 300 300 303 305 307 310 311 311 311 310 310 311 311 311 311 314
294 290 280 284 290 293 291 290 290 286 281 281 280 281 286 287 291 291 290 291 290 294 294 296 298 300 300 301 302 303 304 306 307 307 308 308 307 307 305 304 305 304 302 302
295 287 279 281 285 288 288 290 292 291 286 280 279 281 287 287 288 287 289 290 291 294 295 296 297 298 299 300 301 302 303 303 303 304 305 304 304 304 302 301 300 300 299 299
298 288 285 280 284 286 284 286 290 290 283 281 281 284 285 284 287 287 288 291 293 295 296 296 296 297 298 300 300 301 301 302 302 303 303 301 301 301 300 300 300 298 298 297
294 286 288 290 289 288 287 287 287 289 290 284 286 285 289 287 287 288 288 289 293 294 295 295 295 296 297 298 299 300 300 301 301 300 299 298 298 299 300 298 297 296 294 294
292 285 285 285 286 288 286 288 288 290 291 290 289 287 295 291 289 289 288 289 293 295 296 296 296 296 297 298 299 299 299 298 298 297 296 294 294 292 293 292 290 290 289 289
284 284 283 283 284 286 282 286 288 288 291 291 287 292 293 291 290 290 289 290 292 294 295 295 296 297 297 298 298 298 297 295 296 293 291 289 288 287 287 287 287 286 285 285
283 282 283 284 282 275 286 293 293 290 291 293 293 294 294 294 295 293 292 291 291 293 294 296 297 297 296 295 295 295 294 292 290 288 287 287 287 286 285 285 285 284 284 284
287 283 279 279 280 283 284 287 290 289 289 294 294 295 295 295 291 291 292 292 293 294 296 296 296 295 294 295 294 292 289 288 288 287 286 285 285 283 284 283 283 282 281 280
287 285 281 282 278 277 286 289 294 291 283 294 295 295 294 289 289 294 291 293 292 293 292 292 293 292 294 291 290 290 287 287 286 286 286 285 283 283 281 281 280 281 281 280
283 284 281 282 280 282 286 289 293 282 286 295 294 295 294 290 294 294 293 293 292 290 291 291 293 293 292 288 289 288 286 287 286 284 283 281 280 280 280 278 275 277 278 279
282 281 281 282 279 278 287 290 288 293 294 288 295 294 294 295 294 291 291 289 289 289 289 288 287 286 285 287 288 286 286 284 282 281 280 278 277 280 279 278 273 275 277 276
282 286 283 286 285 287 290 291 293 291 290 289 290 295 296 294 294 290 288 287 287 287 285 284 285 283 281 281 283 283 280 281 280 279 277 275 276 277 276 277 276 275 274 275
287 289 285 287 287 286 289 288 287 288 287 287 288 289 292 291 288 286 285 285 284 283 283 281 282 281 279 279 281 281 280 279 279 277 276 276 277 275 274 275 276 276 274 273
286 288 287 283 284 285 286 287 289 289 288 287 286 287 289 288 286 286 284 283 283 282 281 282 282 280 276 276 276 277 277 279 277 276 275 275 275 275 274 274 275 276 274 278
287 285 286 285 288 290 290 292 288 287 288 287 287 285 285 286 285 284 282 282 281 280 279 278 277 276 273 274 273 272 272 276 277 275 274 274 274 272 273 273 272 282 282 284
Wind_Speed
3 5 12 11 11 10 9 9 12 8 15 12 23 19 18 15 6 10 12 12 12 16 18 14 14 15 14 13 14 16 15 14 11 8 9 6 7 5 3 4 6 7 7 7
4 19 15 8 9 10 16 12 12 9 9 5 12 19 17 14 8 10 16 11 13 16 9 14 15 13 16 16 15 14 15 14 12 9 8 5 6 4 6 7 7 8 10 9
15 4 15 14 9 9 10 10 12 13 5 10 4 12 17 10 13 8 9 10 14 18 17 16 12 14 13 14 16 16 16 15 13 12 5 3 4 3 5 7 8 10 10 11
15 8 18 14 16 15 11 11 12 7 1 7 8 9 11 20 18 15 18 18 18 12 16 16 17 14 16 17 14 15 15 14 14 12 10 14 10 10 8 9 7 8 11 11
9 13 17 18 21 19 7 4 11 2 3 6 10 7 8 10 20 20 24 20 18 13 15 18 19 20 19 14 14 13 14 13 14 15 15 12 11 9 5 5 8 9 6 8
6 6 13 12 6 8 9 5 8 4 3 7 13 12 7 12 15 20 16 19 18 15 12 13 19 18 16 11 13 13 15 14 14 16 16 16 17 9 7 5 7 5 4 4
3 2 4 7 9 2 10 12 2 4 4 12 6 10 17 5 11 20 23 20 17 15 12 11 12 14 15 15 17 14 16 16 14 15 17 16 14 12 11 9 5 5 4 4
10 6 11 7 7 11 18 16 6 6 7 5 5 16 15 16 12 7 9 12 13 16 15 14 15 17 17 18 16 16 15 15 12 13 13 12 11 9 7 7 5 5 6 5
8 8 8 10 2 12 6 10 10 1 2 2 7 8 10 9 8 7 7 8 10 12 10 12 9 12 13 12 14 16 12 9 10 10 7 8 7 7 6 5 4 3 3 2
5 4 12 7 3 1 6 14 7 3 2 6 6 7 12 11 14 8 9 11 8 6 7 7 8 9 6 7 7 8 8 9 7 8 7 7 7 7 6 6 6 6 5 2
9 2 4 8 9 13 6 7 5 6 4 4 3 9 7 14 18 17 11 9 11 10 9 7 6 6 7 6 7 7 7 8 7 7 7 8 7 6 6 6 5 5 5 4
12 4 5 8 4 7 1 10 10 8 8 6 3 9 3 5 8 10 10 9 8 9 9 8 8 8 8 8 7 7 6 8 7 7 7 7 7 7 6 6 6 6 5 4
14 6 4 6 2 3 5 12 12 8 6 8 4 8 2 3 5 3 9 8 8 8 9 8 8 8 7 6 6 7 7 7 7 7 8 7 7 8 7 6 6 6 6 4
14 6 10 13 13 11 16 22 24 18 9 3 11 7 6 4 6 5 5 5 7 10 13 11 8 8 7 7 7 7 7 7 7 8 8 8 7 7 7 6 6 5 5 5
8 15 17 21 9 17 15 24 21 25 23 17 8 8 13 5 9 11 9 7 7 9 10 10 10 8 8 8 7 6 6 7 6 7 7 7 7 7 7 7 6 6 5 5
3 5 5 11 8 20 17 23 28 27 23 16 13 15 15 3 2 6 9 11 11 11 12 11 10 10 11 11 10 9 8 7 7 7 8 7 8 7 7 7 6 6 6 5
1 8 6 12 4 11 13 28 31 25 25 30 19 29 14 14 11 11 10 11 14 15 14 15 15 14 12 12 11 11 9 7 8 8 7 7 7 7 7 6 6 6 6 5
4 8 11 7 8 10 6 20 31 35 37 29 26 13 19 19 21 10 9 15 14 13 13 13 11 10 10 9 8 8 8 7 8 8 8 8 8 7 6 7 7 6 5 6
19 9 10 6 9 0 4 11 30 29 32 32 32 20 15 18 5 9 13 12 19 18 17 12 9 8 8 12 10 11 9 8 8 8 8 7 7 8 8 7 7 5 5 4
22 19 15 4 7 10 16 12 18 2 15 25 31 29 25 8 16 29 11 12 14 12 9 11 12 8 12 9 12 12 10 9 9 9 9 8 7 8 7 6 6 3 4 4
8 14 17 6 3 10 6 13 19 16 21 21 25 28 25 21 21 8 10 11 7 7 11 10 14 15 13 12 12 11 10 12 8 7 7 7 7 8 8 6 3 5 5 5
10 12 8 5 3 16 10 18 25 33 15 7 19 24 27 32 15 10 11 9 10 11 10 9 11 9 8 10 12 11 12 7 8 9 8 7 6 6 6 8 4 4 5 6
12 10 9 14 13 1 17 11 11 5 8 9 9 18 29 25 23 12 9 10 8 11 10 7 11 11 6 5 6 9 6 9 10 10 8 6 6 6 6 7 6 4 4 5
8 7 2 3 6 6 13 5 2 1 2 2 2 5 9 12 10 7 8 8 9 8 9 6 12 10 6 4 6 7 9 9 11 11 9 7 9 7 6 4 4 5 4 4
7 7 9 8 2 4 7 9 8 7 3 2 2 2 5 11 8 10 8 9 9 8 7 8 10 10 7 6 7 6 8 10 10 9 8 7 6 6 5 3 5 4 3 5
6 7 12 9 7 8 10 13 9 7 6 6 5 3 5 6 10 11 10 8 10 11 10 11 11 12 8 8 7 6 5 6 9 8 5 4 5 4 4 4 1 4 5 9
Wind_Direction
171 175 209 177 176 261 309 214 234 214 232 216 228 232 229 249 228 219 206 202 206 202 204 189 188 189 185 177 172 178 175 181 178 175 179 184 196 199 201 201 211 205 203 198
144 228 214 187 182 196 257 261 236 265 253 271 241 241 230 230 227 210 206 211 208 210 184 185 186 182 184 180 184 179 180 180 189 188 183 179 169 190 199 195 209 202 205 198
206 202 188 194 197 197 217 241 241 235 195 204 283 264 241 239 230 227 226 214 213 203 193 192 180 181 175 179 184 184 185 183 184 189 159 143 150 154 189 201 209 217 203 207
227 195 186 194 194 191 227 197 255 302 38 221 186 270 226 219 224 217 220 220 218 193 199 192 186 182 184 193 183 187 186 176 188 176 182 197 197 199 204 202 201 207 208 203
201 172 177 194 197 178 207 190 235 187 296 303 252 244 262 194 221 210 218 216 216 200 191 189 188 189 193 178 186 181 180 188 188 189 192 193 202 207 183 182 198 212 203 191
234 299 180 182 66 181 109 99 48 43 93 248 221 224 230 208 199 216 218 214 209 202 197 194 189 188 188 181 177 180 182 192 190 192 194 196 204 199 192 201 203 205 200 199
128 263 319 146 102 24 130 111 193 202 194 232 211 224 245 245 201 204 209 209 206 206 194 184 178 176 183 182 188 186 188 197 196 192 198 200 201 191 198 199 187 179 198 203
180 221 188 191 183 169 175 155 168 212 203 254 157 233 246 224 235 254 217 210 194 200 200 198 185 186 185 189 184 186 188 197 189 191 199 198 188 193 193 184 188 196 200 181
180 215 177 199 154 155 172 164 125 187 303 329 215 273 303 232 230 221 178 157 183 202 194 196 179 185 181 172 178 181 175 178 181 188 169 178 174 167 166 173 163 162 108 145
191 210 197 177 150 66 208 141 126 147 188 259 257 260 226 202 222 206 199 186 180 149 145 151 158 159 155 153 152 158 167 176 173 166 154 147 144 139 144 150 144 145 129 164
163 187 146 157 205 168 144 153 132 107 169 257 300 262 232 205 215 206 190 187 173 171 169 155 139 136 136 137 149 166 167 160 162 153 144 140 139 135 137 150 136 121 112 146
205 160 176 207 214 211 194 180 156 174 185 231 251 276 310 299 221 178 181 185 187 168 169 160 145 144 149 154 150 151 144 140 147 146 135 135 132 134 123 112 103 110 121 93
171 175 163 145 30 353 197 181 170 144 84 226 198 263 323 317 355 148 162 188 179 155 149 150 151 165 163 156 152 150 149 148 145 135 131 133 133 127 122 119 115 116 123 111
204 168 189 209 211 143 187 188 192 166 156 231 233 291 270 231 227 232 176 171 159 165 167 165 166 175 168 163 162 158 148 144 146 140 141 139 136 127 121 117 121 124 119 121
255 207 214 238 216 182 196 187 184 198 179 194 205 232 269 244 223 214 195 169 167 174 177 177 176 175 169 161 158 146 149 152 149 136 131 137 129 121 122 122 114 107 104 111
269 212 152 236 206 186 190 190 187 199 203 222 236 258 279 303 159 194 196 173 186 193 193 186 179 178 180 173 167 163 163 158 143 135 137 135 132 128 126 125 132 133 137 132
256 321 186 229 237 201 205 190 188 195 202 210 207 222 199 216 226 209 201 190 198 197 194 191 191 185 178 174 165 167 159 153 149 142 135 134 132 136 150 143 135 133 132 113
217 218 291 230 144 211 241 193 198 197 204 206 233 197 211 210 215 203 197 188 200 201 198 197 185 173 164 150 142 136 143 148 140 144 150 153 150 144 144 136 135 131 128 129
204 214 255 231 207 4 248 212 193 192 218 214 228 218 210 207 133 254 206 194 197 197 200 192 169 151 140 154 154 145 148 153 151 160 159 158 150 145 148 148 144 137 131 124
220 208 211 209 191 221 220 181 204 127 258 207 215 224 220 129 210 227 170 184 208 198 165 157 154 133 146 159 150 150 157 157 171 170 169 158 154 150 146 144 139 116 117 137
189 186 201 205 232 271 219 168 138 177 239 210 201 209 203 203 216 177 180 191 172 153 159 143 153 163 165 150 147 152 157 184 174 146 138 140 146 143 140 130 122 128 138 127
222 174 184 171 133 258 163 144 166 215 232 283 198 203 204 217 201 190 187 158 150 144 141 146 135 137 138 146 148 159 178 149 134 133 128 129 134 134 131 123 102 115 128 118
255 214 185 193 203 241 182 180 211 168 176 201 190 198 206 199 200 177 163 148 147 143 130 104 124 117 92 106 124 141 148 136 129 122 128 130 121 116 117 129 134 124 123 137
268 259 207 95 227 219 210 265 340 58 300 290 314 201 176 178 138 123 120 133 126 123 125 115 122 121 114 112 109 127 136 132 132 132 136 135 129 127 130 129 139 139 153 153
210 196 205 277 279 4 288 222 214 191 164 152 26 354 161 130 127 132 130 124 115 111 109 127 128 122 110 102 103 110 128 130 126 128 137 137 127 130 130 119 165 173 214 167
216 200 201 230 184 193 221 237 175 164 173 157 124 103 60 110 131 122 115 115 121 117 114 103 100 103 94 90 79 68 56 110 129 127 128 123 121 125 126 129 49 220 206 207